Location: Bolen
(50.1307°N, 19.9838°E)
Time: 18:19:15
(UTC+00:00)

Daily predictions for brighter satellites

Satellite Brightness Start Highest point End
(mag) Time Altitude Azimuth Time Altitude Azimuth Time Altitude Azimuth
Cosmos 2279 Rocket 4.1 15:55:51 10° S 16:02:03 90° E 16:08:18 10° N
Lacrosse 5 3.5 16:00:26 10° SSE 16:03:53 18° SE 16:07:20 10° E
SL-08 R/B 3.6 16:03:31 10° NNE 16:08:23 54° E 16:13:13 10° S
Timation 2 Rocket 4.0 16:02:30 10° NNW 16:08:43 82° ENE 16:15:10 10° SSE
Cosmos 1607 4.0 16:03:52 10° SSW 16:09:55 69° SE 16:16:06 10° NE
Cosmos 1025 Rocket 3.7 16:05:47 10° SSW 16:09:58 58° WNW 16:14:15 10° N
USA 281 3.7 16:11:32 10° NNE 16:18:01 63° WNW 16:24:28 10° SW
Cosmos 407 Rocket 3.6 16:13:27 10° S 16:18:27 54° ESE 16:23:26 10° NNE
YAOGAN 1 3.6 16:16:21 10° ESE 16:19:46 24° ENE 16:23:13 10° N
DMSP B5D2-2 4.2 16:15:53 10° NNE 16:21:05 55° E 16:26:14 10° S
Cosmos 1844 Rocket 3.1 16:16:48 10° NNW 16:22:03 39° NE 16:27:15 10° ESE
Cosmos 1328 4.1 16:19:37 10° SSE 16:23:25 44° E 16:27:11 10° NNE
CZ-4B DEB 4.4 16:20:06 10° SE 16:25:20 50° ENE 16:30:37 10° N
Cosmos 1975 Rocket 4.3 16:21:40 10° SSW 16:25:56 45° WNW 16:30:13 10° N
Lacrosse 5 rocket 1.8 16:22:38 10° NW 16:25:58 35° NNE 16:29:02 12° E
CZ-4B R/B 3.9 16:24:39 10° ESE 16:29:20 32° ENE 16:34:05 10° N
Cosmos 1536 Rocket 3.5 16:25:34 10° S 16:29:49 62° E 16:34:07 10° NNE
Cosmos 1140 Rocket 3.4 16:24:53 10° SSW 16:30:03 79° ESE 16:35:14 10° NNE
Meteor PRIRODA 4.0 16:27:32 10° S 16:31:03 66° WSW 16:34:36 10° NNW
Cosmos 2227 4.3 16:26:20 10° NNW 16:32:09 86° WSW 16:37:55 10° SSE
CZ-4 R/B 2.7 16:29:27 10° ESE 16:32:25 20° ENE 16:35:22 10° NNE
Cosmos 44 3.9 16:28:29 10° WSW 16:32:42 47° NW 16:37:08 10° NNE
Cosmos 1844 4.1 16:29:05 10° NNW 16:34:37 43° NE 16:40:06 10° ESE
Cosmos 1190 Rocket 4.2 16:32:11 10° S 16:37:18 51° ESE 16:42:26 10° NNE
Cosmos 1023 Rocket 4.5 16:32:23 10° SSW 16:37:33 88° WNW 16:42:42 10° NNE
Cosmos 2278 3.7 16:34:34 10° SSW 16:40:15 81° ESE 16:45:59 10° NNE
Cosmos 1606 Rocket 3.7 16:36:25 10° N 16:40:36 46° ENE 16:44:46 10° SSE
Cosmos 724 4.3 16:35:01 10° SSW 16:40:55 75° SE 16:47:01 10° NE
CZ-4C R/B 3.5 16:38:27 10° NNE 16:42:11 43° E 16:45:43 10° S
RESURS DK-1 3.1 16:38:48 10° NNW 16:42:34 33° NE 16:46:02 12° ESE
Cosmos 2228 2.9 16:40:35 10° N 16:44:51 87° ENE 16:49:04 10° S
Cosmos 2360 Rocket 3.2 16:40:19 10° SSE 16:44:51 26° ESE 16:48:34 13° NE
Cosmos 1408 2.3 16:41:55 10° S 16:45:18 73° E 16:48:44 10° NNE
Cosmos 2219 Rocket 4.0 16:44:08 10° ESE 16:45:16 12° ESE 16:45:16 12° ESE
ISS -2.1 16:44:04 10° W 16:47:10 34° SSW 16:50:15 10° SE
Cosmos 1633 3.5 16:46:18 10° SE 16:48:57 22° E 16:49:44 20° ENE
Cosmos 2333 Rocket 3.5 16:45:43 10° SE 16:49:31 19° E 16:51:06 17° E
Cosmos 2278 Rocket 3.9 16:46:25 10° N 16:49:48 16° NNE 16:51:41 14° NE
Cosmos 1184 Rocket 4.1 16:49:18 10° NNW 16:51:26 30° W 16:53:33 10° SSW
Cosmos 1892 2.7 16:48:26 10° S 16:52:05 55° E 16:55:46 10° NNE
Meteor 1-21 Rocket 4.3 16:46:25 10° SSW 16:52:06 85° WNW 16:57:43 10° NNE
Cosmos 1892 Rocket 4.3 16:50:05 10° SSE 16:53:56 30° E 16:57:48 10° NNE
COSMO-SKYMED 1 2.5 16:50:24 10° NNE 16:54:46 74° ESE 16:59:06 10° S
Cosmos 2322 Rocket 2.5 16:50:48 10° S 16:56:03 43° ESE 17:01:00 12° NE
COSMOS 2455 3.7 16:53:22 10° WSW 16:59:12 49° NW 17:05:05 10° NNE
USA 290 3.9 16:56:43 10° SW 16:59:40 33° WNW 17:02:39 10° N
CZ-4B R/B 4.1 16:56:14 10° S 17:00:10 45° W 17:03:54 10° NNW
Cosmos 468 Rocket 3.9 16:59:24 10° NNW 17:04:36 77° ENE 17:09:44 10° SSE
Cosmos 1825 2.3 17:02:13 10° S 17:05:47 48° E 17:09:22 10° NNE
SL-4 R/B 1.7 17:02:48 10° W 17:06:17 68° N 17:07:55 30° ENE
SL-16 R/B 2.1 17:04:09 10° SSW 17:09:47 75° ESE 17:15:29 10° NNE
Cosmos 1745 Rocket 4.3 17:05:17 10° N 17:11:11 40° ENE 17:16:58 10° SE
In-Cosmos 22 Rocket 4.3 17:06:20 10° S 17:12:02 60° E 17:17:46 10° NNE
Cosmos 1726 Rocket 3.4 17:08:54 10° N 17:13:14 75° E 17:17:32 10° SSE
BlueWalker 3 2.3 17:11:03 10° W 17:14:52 54° N 17:16:24 32° ENE
ATLAS 5 CENTAUR R/B 3.7 17:12:10 10° NW 17:14:53 16° N 17:17:22 12° NNE
Cosmos 1954 Rocket 3.9 17:10:08 10° SSW 17:15:21 72° ESE 17:20:34 10° NNE
Cosmos 1340 Rocket 4.4 17:16:26 10° SW 17:20:01 35° WNW 17:23:40 10° N
PAYLOAD B 4.3 17:16:56 10° SSE 17:22:28 81° WSW 17:28:01 10° NNW
Okean O Rocket 1.6 17:19:11 10° SSE 17:23:27 54° ENE 17:27:47 10° N
Cosmos 1980 Rocket 3.7 17:18:31 10° WSW 17:23:34 32° NW 17:28:42 10° NNE
Cosmos 1763 Rocket 3.9 17:18:29 10° NNW 17:23:38 64° WSW 17:28:40 10° S
Okean-O 4.2 17:25:30 19° NNE 17:25:30 19° NNE 17:27:24 10° N
CSL-04 Rocket 4.2 17:22:59 29° E 17:24:26 34° ENE 17:29:15 10° N
ATLAS CENTAUR R/B 3.0 17:23:10 10° WSW 17:27:27 34° NW 17:30:38 15° NNE
IRIDIUM 104 4.2 17:22:13 10° N 17:27:27 69° E 17:32:39 10° SSE
Meteor 1-27 4.2 17:21:39 10° N 17:27:29 73° ENE 17:33:12 10° SSE
Cosmos 1340 2.6 17:24:03 10° N 17:27:41 54° ENE 17:28:24 45° ESE
ATLAS 2AS CENTAUR R/B 3.2 17:20:46 10° NW 17:27:42 61° SW 17:34:12 10° SSE
Cosmos 1709 Rocket 4.4 17:24:08 10° N 17:29:48 36° ENE 17:31:43 29° ESE
Cosmos 1943 Rocket 4.0 17:31:50 10° N 17:34:52 14° NNE 17:35:02 14° NNE
Cosmos 841 Rocket 3.4 17:30:01 10° NNW 17:35:18 69° ENE 17:38:59 20° SE
Cosmos 2237 4.2 17:29:40 10° SSW 17:35:24 90° NW 17:40:12 15° NNE
IRIDIUM 114 4.2 17:31:20 10° N 17:36:36 81° E 17:41:49 10° S
Cosmos 1553 Rocket 3.8 17:31:28 10° S 17:37:31 72° E 17:43:40 10° NNE
Cosmos 1869 3.1 17:34:47 10° N 17:38:42 89° E 17:42:37 10° S
SL-08 R/B 4.4 17:34:20 10° N 17:40:38 90° E 17:46:56 10° S
Cosmos 1417 Rocket 4.5 17:34:34 10° S 17:40:40 57° E 17:46:44 10° NNE
Cosmos 540 Rocket 3.7 17:35:41 10° NNW 17:40:50 70° WSW 17:45:56 10° SSE
Cosmos 1461 2.9 17:39:29 10° SSW 17:43:43 70° SE 17:44:27 57° ENE
IRIDIUM 103 4.3 17:40:31 10° N 17:45:46 85° W 17:51:00 10° S
Lacrosse 5 1.8 17:41:05 10° SW 17:46:10 75° SE 17:47:30 49° ENE
MINOTAUR 4 R/B 3.9 17:46:07 79° NNW 17:46:16 84° WNW 17:49:41 10° SSW
Genesis I 4.1 17:43:24 10° SSW 17:46:06 35° SSE 17:46:06 35° SSE
Gblst 52 Del rocket 4.0 17:42:13 10° WSW 17:47:49 82° SSE 17:49:26 47° E
Cosmos 2058 Rocket 3.0 17:43:34 10° N 17:47:59 85° W 17:52:24 10° S
Landsat 7 4.2 17:51:16 44° NE 17:51:16 44° NE 17:55:05 10° N
YAOGAN 1 3.7 17:51:28 10° S 17:55:37 45° W 17:59:47 10° NNW
SJ-6B 4.0 17:59:49 31° N 17:59:49 31° N 18:02:01 10° N
Cosmos 676 Rocket 4.4 17:53:28 10° SW 17:58:42 62° WNW 18:03:02 15° NNE
Lacrosse 5 rocket 1.7 18:01:26 10° WNW 18:04:27 53° W 18:04:27 53° W
Cosmos 1844 Rocket 3.8 18:00:46 10° NW 18:06:00 43° WSW 18:11:12 10° S
CZ-4 R/B 2.2 18:02:58 10° S 18:06:59 51° W 18:10:59 10° NNW
CZ-4B R/B 4.1 18:04:33 10° S 18:09:42 48° W 18:14:59 10° NNW
S3M 3.9 18:05:47 10° S 18:12:10 79° E 18:18:34 10° NNE
IGS 5A 3.8 18:15:32 64° W 18:15:32 64° W 18:19:32 10° NNW
RESURS DK-1 4.0 18:16:47 10° NW 18:20:30 32° WSW 18:21:56 25° SSW
Cosmos 2360 Rocket 2.5 18:22:49 10° SW 18:28:24 63° WNW 18:30:24 39° N
Cosmos 2219 Rocket 2.9 18:23:27 10° SSW 18:27:04 41° S 18:27:04 41° S
Resurs 01 Rocket 4.2 18:37:06 12° N 18:37:06 12° N 18:37:26 10° N
Cosmos 2333 Rocket 2.1 18:27:25 10° SSW 18:33:05 82° WNW 18:33:11 82° NW
Cosmos 2278 Rocket 3.0 18:29:43 10° NNW 18:33:32 38° N 18:33:32 38° N
Cosmos 2322 Rocket 3.3 18:34:55 10° WSW 18:40:10 39° NW 18:42:51 25° N
SL-4 R/B 4.3 18:42:04 10° WNW 18:43:14 20° WNW 18:43:14 20° WNW
Cosmos 2369 Rocket 4.4 18:48:13 10° N 18:49:22 13° N 18:49:22 13° N
SL-16 R/B 4.0 18:49:44 10° W 18:54:29 27° NW 18:57:26 18° N
Okean O Rocket 4.1 18:56:57 10° SW 19:00:07 19° W 19:03:20 10° NW
ATLAS 5 CENTAUR R/B 4.2 18:57:32 10° NNW 18:58:45 15° NNW 18:58:45 15° NNW
ATLAS CENTAUR R/B 4.2 19:04:42 10° NW 19:06:27 14° NNW 19:06:27 14° NNW
Cosmos 1943 Rocket 4.2 19:14:42 10° NNW 19:16:34 20° NNW 19:16:34 20° NNW
Lacrosse 5 4.0 19:24:33 10° W 19:26:44 24° WNW 19:26:44 24° WNW
